Terug naar catalogus

CZ-6A DEB

ActiefSSO
NORAD 56596·DEBRIS·🇨🇳 China

Gelanceerd Nov 11, 2022 vanaf Taiyuan Satellite Launch Center

Loading…

Volgende Passages (komende 24 uur)

TLE

VersSource: Space-Track

Epoch: Sep 12, 2026, 23:08 UTC

1 56596U 22151ADU 26255.96451846  .00001714  00000-0  79114-3 0  9993
2 56596  98.8134 267.3388 0036213  43.3255 317.0760 14.21953609186672

Volg CZ-6A DEB in realtime met AllMySat

Download on the App Store